Location: Artiguedieu
(43.5000°N, 0.5454°E)
Time: 18:53:23
(UTC+00:00)

Transit 2A - Pass Details

Date: 30 July 2021
Orbit: 594 x 964 km, 66.7° (Epoch: 28 September)

Event Time Altitude Azimuth Distance (km) Brightness Sun altitude
Rises 08:03:04 0° 253° (WSW) 2,849 8.5 33.9°
Reaches altitude 10° 08:05:48 10° 271° (W) 1,978 7.7 34.4°
Maximum altitude 08:09:03 20° 318° (NW) 1,498 7.3 35.0°
Drops below altitude 10° 08:12:28 10° 5° (N) 2,100 8.4 35.6°
Sets 08:15:29 0° 23° (NNE) 3,086 9.3 36.2°
